{"data":{"norad_id":48365,"epoch":"2026-09-19T06:14:54.509568Z","epoch_age_seconds":140737,"freshness":"FRESH","line1":"1 48365U 21038N   26262.26035312  .00002409  00000+0  89366-4 0  9990","line2":"2 48365  53.1594 167.0126 0001463  83.9894 276.1275 15.31698360296899","mean_motion":15.3169836,"eccentricity":0.0001463,"inclination_deg":53.1594,"raan_deg":167.0126,"arg_perigee_deg":83.9894,"mean_anomaly_deg":276.1275,"bstar":8.9366e-5,"rev_number":29689,"period_min":94.013288621658,"perigee_km":469.74289256504,"apogee_km":471.7468754043,"semimajor_km":6848.8818839847,"source":"CELESTRAK","updated_at":"2026-09-20T09:00:38.941317Z"}}